Location: Ariel
(45.9570°N, 122.5700°W)
Time: 17:12:36
(UTC-07:00)

Tiros 1 - Pass Details

Date: 27 July 2019
Orbit: 631 x 664 km, 48.4° (Epoch: 23 August)

Event Time Altitude Azimuth Distance (km) Brightness Sun altitude
Rises 11:12:25 0° 232° (SW) 2,967 10.5 52.9°
Reaches altitude 10° 11:14:47 10° 227° (SW) 2,063 9.8 53.3°
Maximum altitude 11:19:26 54° 151° (SSE) 801 9.8 53.9°
Drops below altitude 10° 11:24:07 10° 75° (ENE) 2,083 10.2 54.6°
Sets 11:26:31 0° 71° (ENE) 2,999 10.8 54.9°
